Location: Bacharowice
(49.9333°N, 19.5833°E)
Time: 02:48:57
(UTC+00:00)

Cosmos 44 - Pass Details

Date: 11 May 2021
Orbit: 571 x 791 km, 65.1° (Epoch: 22 June)

Event Time Altitude Azimuth Distance (km) Brightness Sun altitude
Rises 21:43:15 0° 317° (NW) 3,296 7.8 -20.9°
Reaches altitude 10° 21:45:48 10° 311° (NW) 2,356 6.8 -21.0°
Maximum altitude 21:50:54 43° 241° (WSW) 1,083 4.1 -21.2°
Enters shadow 21:51:59 38° 210° (SSW) 1,165 4.1 -21.2°
